This is the latest recevied weather packets stored in our database for station/object BMCB-2. If no packets are shown the sender has not sent any weather packets the latest 10 day(s).
| Time | Temp. | Humidity | Pressure | Rain* | Wind** | Luminosity | Snow |
|---|---|---|---|---|---|---|---|
| 1777744871 | 18.89° C | 77% | 1015.1 hPa | 0.25 mm | - | 58 W/m² | - |
| 1777740061 | 21.67° C | 56% | 1014.9 hPa | 0 mm | - | 108 W/m² | - |
| 1777739466 | 21.67° C | 55% | 1015.1 hPa | 0 mm | - | 96 W/m² | - |
| 1777735263 | 23.33° C | 48% | 1015.6 hPa | 0 mm | - | 260 W/m² | - |
| 1777733457 | 23.89° C | 47% | 1015.9 hPa | 0 mm | - | 574 W/m² | - |
| 1777732855 | 23.33° C | 49% | 1016.2 hPa | 0 mm | - | 562 W/m² | - |
| 1777731657 | 22.78° C | 51% | 1016.6 hPa | 0 mm | - | 478 W/m² | - |
| 1777731057 | 22.78° C | 60% | 1017 hPa | 0 mm | - | 634 W/m² | - |
| 1777727456 | 21.67° C | 61% | 1017.9 hPa | 0 mm | - | 664 W/m² | - |
| 1777721456 | 21.11° C | 60% | 1019.2 hPa | 0 mm | - | 628 W/m² | - |
| 1777718457 | 20.56° C | 61% | 1019.6 hPa | 0 mm | - | 548 W/m² | - |
| 1777716658 | 20.56° C | 66% | 1019.8 hPa | 0 mm | - | 348 W/m² | - |
| 1777713057 | 18.89° C | 70% | 1020.3 hPa | 0 mm | - | 570 W/m² | - |
| 1777712457 | 18.33° C | 72% | 1020.4 hPa | 0 mm | - | 376 W/m² | - |
| 1777711857 | 18.33° C | 72% | 1020.4 hPa | 0 mm | - | 406 W/m² | - |
| 1777708259 | 17.22° C | 74% | 1020.7 hPa | 0 mm | - | 408 W/m² | - |
| 1777704656 | 14.44° C | 85% | 1021.5 hPa | 0 mm | - | 214 W/m² | - |
| 1777702255 | 12.78° C | 90% | 1021.7 hPa | 0 mm | - | 100 W/m² | - |
| 1777701656 | 12.78° C | 89% | 1021.7 hPa | 0 mm | - | 114 W/m² | - |
| 1777701057 | 12.22° C | 90% | 1021.8 hPa | 0 mm | - | 98 W/m² | - |
| 1777699857 | 11.67° C | 89% | 1021.8 hPa | 0 mm | - | 44 W/m² | - |
| 1777698652 | 11.11° C | 88% | 1021.7 hPa | 0.25 mm | - | 38 W/m² | - |
| 1777691454 | 12.78° C | 66% | 1021.8 hPa | 0 mm | - | 0 W/m² | - |
| 1777686057 | 8.33° C | 79% | 1022.4 hPa | 0 mm | - | 0 W/m² | - |
| 1777680657 | 8.89° C | 73% | 1022.7 hPa | 0 mm | - | 0 W/m² | - |
* Rain latest hour (hover to see other rain measurements)
** Current wind speed in m/s (hover to see current wind gust speed)